START_TIME,STEP,MOV.,P1,t_acc.,E44,t_acc.,A3,t_acc.,P10,t_acc.
1981-08-28 15:00:23.930 ,3,0,1.,1.2,13.,1.2,0.,1.2,0.,1.2
1981-08-28 15:00:25.130 ,3,0,0.,1.2,4.,1.2,0.,1.2,0.,1.2
1981-08-28 15:00:26.330 ,3,0,0.,1.2,9.,1.2,0.,1.2,0.,1.2
1981-08-28 15:00:27.530 ,3,0,0.,1.2,12.,1.2,0.,1.2,0.,1.2
1981-08-28 15:00:28.730 ,3,0,0.,1.2,9.,1.2,1.,1.2,0.,1.2
1981-08-28 15:00:29.930 ,3,0,1.,1.2,9.,1.2,0.,1.2,0.,1.2
1981-08-28 15:00:31.130 ,3,0,0.,1.2,6.,1.2,0.,1.2,0.,1.2
1981-08-28 15:00:32.330 ,3,0,1.,1.2,12.,1.2,0.,1.2,0.,1.2
1981-08-28 15:00:33.530 ,3,0,0.,1.2,8.,1.2,0.,1.2,0.,1.2
1981-08-28 15:00:34.730 ,3,0,0.,1.2,12.,1.2,0.,1.2,0.,1.2
1981-08-28 15:00:35.930 ,3,0,1.,1.2,8.,1.2,0.,1.2,0.,1.2
1981-08-28 15:00:37.130 ,3,0,0.,1.2,7.,1.2,0.,1.2,0.,1.2
1981-08-28 15:00:38.330 ,3,0,0.,1.2,8.,1.2,0.,1.2,0.,1.2
1981-08-28 15:00:39.530 ,3,0,1.,1.2,7.,1.2,0.,1.2,0.,1.2
1981-08-28 15:00:40.730 ,3,0,0.,1.2,5.,1.2,0.,1.2,0.,1.2
1981-08-28 15:00:41.930 ,3,0,1.,1.2,7.,1.2,0.,1.2,0.,1.2
1981-08-28 15:00:43.130 ,3,0,0.,1.2,10.,1.2,0.,1.2,0.,1.2
1981-08-28 15:00:44.330 ,3,0,1.,1.2,6.,1.2,0.,1.2,0.,1.2
1981-08-28 15:00:45.530 ,3,0,1.,1.2,3.,1.2,0.,1.2,0.,1.2
1981-08-28 15:00:46.730 ,3,0,0.,1.2,0.,1.2,0.,1.2,0.,1.2
1981-08-28 15:00:47.930 ,4,0,1.,1.2,9.,1.2,0.,1.2,0.,1.2
1981-08-28 15:00:49.130 ,4,0,0.,1.2,13.,1.2,0.,1.2,0.,1.2
1981-08-28 15:00:50.330 ,4,0,0.,1.2,7.,1.2,0.,1.2,0.,1.2
1981-08-28 15:00:51.530 ,4,0,0.,1.2,5.,1.2,0.,1.2,0.,1.2
1981-08-28 15:00:52.730 ,4,0,0.,1.2,11.,1.2,0.,1.2,0.,1.2
1981-08-28 15:00:53.930 ,4,0,3.,1.2,368.,1.2,0.,1.2,0.,1.2
1981-08-28 15:00:55.130 ,4,0,0.,1.2,47.,1.2,0.,1.2,0.,1.2
1981-08-28 15:00:56.330 ,4,0,1.,1.2,49.,1.2,0.,1.2,0.,1.2
1981-08-28 15:00:57.530 ,4,0,0.,1.2,52.,1.2,0.,1.2,0.,1.2
1981-08-28 15:00:58.730 ,4,0,0.,1.2,56.,1.2,0.,1.2,0.,1.2
1981-08-28 15:00:59.930 ,4,0,0.,1.2,50.,1.2,0.,1.2,0.,1.2
1981-08-28 15:01:01.130 ,4,0,1.,1.2,48.,1.2,0.,1.2,0.,1.2
1981-08-28 15:01:02.330 ,4,0,0.,1.2,39.,1.2,0.,1.2,0.,1.2
1981-08-28 15:01:03.530 ,4,0,0.,1.2,33.,1.2,0.,1.2,0.,1.2
1981-08-28 15:01:04.730 ,4,0,1.,1.2,40.,1.2,0.,1.2,0.,1.2
1981-08-28 15:01:05.930 ,4,0,1.,1.2,42.,1.2,0.,1.2,0.,1.2
1981-08-28 15:01:07.130 ,4,0,0.,1.2,46.,1.2,0.,1.2,0.,1.2
1981-08-28 15:01:08.330 ,4,0,0.,1.2,44.,1.2,0.,1.2,0.,1.2
1981-08-28 15:01:09.530 ,4,0,0.,1.2,53.,1.2,0.,1.2,0.,1.2
1981-08-28 15:01:10.730 ,4,0,0.,1.2,52.,1.2,0.,1.2,0.,1.2
1981-08-28 15:01:11.930 ,4,0,1.,1.2,40.,1.2,0.,1.2,0.,1.2
1981-08-28 15:01:13.130 ,4,0,0.,1.2,50.,1.2,0.,1.2,0.,1.2
1981-08-28 15:01:14.330 ,4,0,0.,1.2,55.,1.2,0.,1.2,0.,1.2
1981-08-28 15:01:15.530 ,4,0,0.,1.2,50.,1.2,0.,1.2,0.,1.2
1981-08-28 15:01:16.730 ,4,0,1.,1.2,49.,1.2,0.,1.2,0.,1.2
1981-08-28 15:01:17.930 ,4,0,0.,1.2,52.,1.2,0.,1.2,0.,1.2
1981-08-28 15:01:19.130 ,4,0,0.,1.2,35.,1.2,0.,1.2,0.,1.2
1981-08-28 15:01:20.330 ,4,0,0.,1.2,57.,1.2,0.,1.2,0.,1.2
1981-08-28 15:01:21.530 ,4,0,0.,1.2,43.,1.2,0.,1.2,0.,1.2
1981-08-28 15:01:22.730 ,4,0,0.,1.2,31.,1.2,0.,1.2,0.,1.2
1981-08-28 15:01:23.930 ,4,0,0.,1.2,46.,1.2,0.,1.2,0.,1.2
1981-08-28 15:01:25.130 ,4,0,0.,1.2,51.,1.2,0.,1.2,0.,1.2
1981-08-28 15:01:26.330 ,4,0,0.,1.2,36.,1.2,0.,1.2,0.,1.2
1981-08-28 15:01:27.530 ,4,0,1.,1.2,49.,1.2,0.,1.2,0.,1.2
1981-08-28 15:01:28.730 ,4,0,1.,1.2,50.,1.2,0.,1.2,0.,1.2
1981-08-28 15:01:29.930 ,4,0,0.,1.2,46.,1.2,0.,1.2,0.,1.2
1981-08-28 15:01:31.130 ,4,0,2.,1.2,47.,1.2,0.,1.2,0.,1.2
1981-08-28 15:01:32.330 ,4,0,0.,1.2,40.,1.2,0.,1.2,0.,1.2
1981-08-28 15:01:33.530 ,4,0,0.,1.2,44.,1.2,0.,1.2,0.,1.2
1981-08-28 15:01:34.730 ,4,0,0.,1.2,52.,1.2,0.,1.2,0.,1.2
1981-08-28 15:01:35.930 ,5,0,1.,1.2,50.,1.2,0.,1.2,0.,1.2
1981-08-28 15:01:37.130 ,5,0,0.,1.2,44.,1.2,0.,1.2,0.,1.2
1981-08-28 15:01:38.330 ,5,0,0.,1.2,48.,1.2,0.,1.2,0.,1.2
1981-08-28 15:01:39.530 ,5,0,0.,1.2,53.,1.2,0.,1.2,0.,1.2
1981-08-28 15:01:40.730 ,5,0,1.,1.2,55.,1.2,0.,1.2,0.,1.2
1981-08-28 15:01:41.930 ,5,0,1.,1.2,416.,1.2,0.,1.2,0.,1.2
1981-08-28 15:01:43.130 ,5,0,0.,1.2,58.,1.2,0.,1.2,0.,1.2
1981-08-28 15:01:44.330 ,5,0,0.,1.2,74.,1.2,0.,1.2,0.,1.2
1981-08-28 15:01:45.530 ,5,0,0.,1.2,66.,1.2,0.,1.2,0.,1.2
1981-08-28 15:01:46.730 ,5,0,0.,1.2,57.,1.2,0.,1.2,0.,1.2
1981-08-28 15:01:47.930 ,5,0,0.,1.2,44.,1.2,0.,1.2,0.,1.2
1981-08-28 15:01:49.130 ,5,0,1.,1.2,54.,1.2,0.,1.2,0.,1.2
1981-08-28 15:01:50.330 ,5,0,0.,1.2,58.,1.2,0.,1.2,0.,1.2
1981-08-28 15:01:51.530 ,5,0,0.,1.2,59.,1.2,0.,1.2,0.,1.2
1981-08-28 15:01:52.730 ,5,0,1.,1.2,53.,1.2,0.,1.2,0.,1.2
1981-08-28 15:01:53.930 ,5,0,0.,1.2,54.,1.2,0.,1.2,0.,1.2
1981-08-28 15:01:55.130 ,5,0,0.,1.2,49.,1.2,0.,1.2,0.,1.2
1981-08-28 15:01:56.330 ,5,0,0.,1.2,50.,1.2,0.,1.2,0.,1.2
1981-08-28 15:01:57.530 ,5,0,0.,1.2,54.,1.2,0.,1.2,0.,1.2
1981-08-28 15:01:58.730 ,5,0,0.,1.2,56.,1.2,0.,1.2,0.,1.2
1981-08-28 15:01:59.930 ,5,0,0.,1.2,68.,1.2,0.,1.2,0.,1.2
1981-08-28 15:02:01.130 ,5,0,1.,1.2,78.,1.2,0.,1.2,0.,1.2
1981-08-28 15:02:02.330 ,5,0,0.,1.2,58.,1.2,0.,1.2,0.,1.2
1981-08-28 15:02:03.530 ,5,0,0.,1.2,60.,1.2,0.,1.2,0.,1.2
1981-08-28 15:02:04.730 ,5,0,0.,1.2,53.,1.2,0.,1.2,0.,1.2
1981-08-28 15:02:05.930 ,5,0,0.,1.2,55.,1.2,0.,1.2,0.,1.2
1981-08-28 15:02:07.130 ,5,0,0.,1.2,68.,1.2,0.,1.2,0.,1.2
1981-08-28 15:02:08.330 ,5,0,0.,1.2,53.,1.2,0.,1.2,0.,1.2
1981-08-28 15:02:09.530 ,5,0,0.,1.2,42.,1.2,0.,1.2,0.,1.2
1981-08-28 15:02:10.730 ,5,0,0.,1.2,63.,1.2,0.,1.2,0.,1.2
1981-08-28 15:02:11.930 ,5,0,0.,1.2,60.,1.2,0.,1.2,0.,1.2
1981-08-28 15:02:13.130 ,5,0,0.,1.2,74.,1.2,0.,1.2,0.,1.2
1981-08-28 15:02:14.330 ,5,0,0.,1.2,53.,1.2,0.,1.2,0.,1.2
1981-08-28 15:02:15.530 ,5,0,0.,1.2,52.,1.2,0.,1.2,0.,1.2
1981-08-28 15:02:16.730 ,5,0,1.,1.2,70.,1.2,0.,1.2,0.,1.2
1981-08-28 15:02:17.930 ,5,0,0.,1.2,42.,1.2,0.,1.2,0.,1.2
1981-08-28 15:02:19.130 ,5,0,1.,1.2,66.,1.2,0.,1.2,0.,1.2
1981-08-28 15:02:20.330 ,5,0,0.,1.2,72.,1.2,0.,1.2,0.,1.2
1981-08-28 15:02:21.530 ,5,0,0.,1.2,61.,1.2,0.,1.2,0.,1.2
1981-08-28 15:02:22.730 ,5,0,0.,1.2,76.,1.2,0.,1.2,0.,1.2
1981-08-28 15:02:23.930 ,6,0,1.,1.2,66.,1.2,0.,1.2,0.,1.2
1981-08-28 15:02:25.130 ,6,0,0.,1.2,66.,1.2,0.,1.2,0.,1.2
1981-08-28 15:02:26.330 ,6,0,0.,1.2,66.,1.2,0.,1.2,0.,1.2
1981-08-28 15:02:27.530 ,6,0,1.,1.2,59.,1.2,0.,1.2,0.,1.2
1981-08-28 15:02:28.730 ,6,0,0.,1.2,64.,1.2,0.,1.2,0.,1.2
1981-08-28 15:02:29.930 ,6,0,0.,1.2,368.,1.2,0.,1.2,0.,1.2
1981-08-28 15:02:31.130 ,6,0,0.,1.2,57.,1.2,0.,1.2,0.,1.2
1981-08-28 15:02:32.330 ,6,0,1.,1.2,63.,1.2,0.,1.2,1.,1.2
1981-08-28 15:02:33.530 ,6,0,0.,1.2,58.,1.2,0.,1.2,0.,1.2
1981-08-28 15:02:34.730 ,6,0,0.,1.2,62.,1.2,0.,1.2,0.,1.2
1981-08-28 15:02:35.930 ,6,0,1.,1.2,53.,1.2,0.,1.2,0.,1.2
1981-08-28 15:02:37.130 ,6,0,2.,1.2,53.,1.2,0.,1.2,0.,1.2
1981-08-28 15:02:38.330 ,6,0,0.,1.2,53.,1.2,0.,1.2,0.,1.2
1981-08-28 15:02:39.530 ,6,0,0.,1.2,57.,1.2,0.,1.2,0.,1.2
1981-08-28 15:02:40.730 ,6,0,0.,1.2,60.,1.2,0.,1.2,0.,1.2
1981-08-28 15:02:41.930 ,6,0,0.,1.2,66.,1.2,0.,1.2,0.,1.2
1981-08-28 15:02:43.130 ,6,0,0.,1.2,64.,1.2,0.,1.2,0.,1.2
1981-08-28 15:02:44.330 ,6,0,0.,1.2,55.,1.2,0.,1.2,0.,1.2
1981-08-28 15:02:45.530 ,6,0,0.,1.2,76.,1.2,0.,1.2,0.,1.2
1981-08-28 15:02:46.730 ,6,0,0.,1.2,66.,1.2,0.,1.2,0.,1.2
1981-08-28 15:02:47.930 ,6,0,0.,1.2,56.,1.2,0.,1.2,0.,1.2
1981-08-28 15:02:49.130 ,6,0,0.,1.2,64.,1.2,0.,1.2,0.,1.2
1981-08-28 15:02:50.330 ,6,0,0.,1.2,53.,1.2,0.,1.2,0.,1.2
1981-08-28 15:02:51.530 ,6,0,1.,1.2,54.,1.2,0.,1.2,0.,1.2
1981-08-28 15:02:52.730 ,6,0,0.,1.2,66.,1.2,0.,1.2,0.,1.2
1981-08-28 15:02:53.930 ,6,0,0.,1.2,56.,1.2,0.,1.2,0.,1.2
1981-08-28 15:02:55.130 ,6,0,1.,1.2,66.,1.2,0.,1.2,0.,1.2
1981-08-28 15:02:56.330 ,6,0,2.,1.2,68.,1.2,0.,1.2,0.,1.2
1981-08-28 15:02:57.530 ,6,0,0.,1.2,62.,1.2,0.,1.2,0.,1.2
1981-08-28 15:02:58.730 ,6,0,0.,1.2,63.,1.2,0.,1.2,0.,1.2
1981-08-28 15:02:59.930 ,6,0,1.,1.2,59.,1.2,0.,1.2,0.,1.2
1981-08-28 15:03:01.130 ,6,0,0.,1.2,63.,1.2,0.,1.2,0.,1.2
1981-08-28 15:03:02.330 ,6,0,0.,1.2,70.,1.2,0.,1.2,0.,1.2
1981-08-28 15:03:03.530 ,6,0,1.,1.2,80.,1.2,0.,1.2,0.,1.2
1981-08-28 15:03:04.730 ,6,0,0.,1.2,46.,1.2,0.,1.2,0.,1.2
1981-08-28 15:03:05.930 ,6,0,0.,1.2,76.,1.2,0.,1.2,0.,1.2
1981-08-28 15:03:07.130 ,6,0,0.,1.2,78.,1.2,0.,1.2,0.,1.2
1981-08-28 15:03:08.330 ,6,0,1.,1.2,48.,1.2,0.,1.2,0.,1.2
1981-08-28 15:03:09.530 ,6,0,0.,1.2,55.,1.2,0.,1.2,0.,1.2
1981-08-28 15:03:10.730 ,6,0,1.,1.2,68.,1.2,0.,1.2,0.,1.2
1981-08-28 15:03:11.930 ,7,0,0.,1.2,72.,1.2,0.,1.2,0.,1.2
1981-08-28 15:03:13.130 ,7,0,0.,1.2,55.,1.2,0.,1.2,0.,1.2
1981-08-28 15:03:14.330 ,7,0,0.,1.2,51.,1.2,0.,1.2,0.,1.2
1981-08-28 15:03:15.530 ,7,0,0.,1.2,70.,1.2,0.,1.2,0.,1.2
1981-08-28 15:03:16.730 ,7,0,1.,1.2,58.,1.2,0.,1.2,0.,1.2
1981-08-28 15:03:17.930 ,7,0,0.,1.2,336.,1.2,0.,1.2,0.,1.2
1981-08-28 15:03:19.130 ,7,0,0.,1.2,55.,1.2,6.,1.2,0.,1.2
1981-08-28 15:03:20.330 ,7,0,0.,1.2,68.,1.2,8.,1.2,0.,1.2
1981-08-28 15:03:21.530 ,7,0,0.,1.2,72.,1.2,7.,1.2,0.,1.2
1981-08-28 15:03:22.730 ,7,0,0.,1.2,57.,1.2,3.,1.2,0.,1.2
1981-08-28 15:03:23.930 ,7,0,0.,1.2,42.,1.2,7.,1.2,0.,1.2
1981-08-28 15:03:25.130 ,7,0,0.,1.2,53.,1.2,3.,1.2,0.,1.2
1981-08-28 15:03:26.330 ,7,0,0.,1.2,48.,1.2,4.,1.2,0.,1.2
1981-08-28 15:03:27.530 ,7,0,0.,1.2,56.,1.2,10.,1.2,0.,1.2
1981-08-28 15:03:28.730 ,7,0,0.,1.2,51.,1.2,2.,1.2,0.,1.2
1981-08-28 15:03:29.930 ,7,0,0.,1.2,58.,1.2,5.,1.2,0.,1.2
1981-08-28 15:03:31.130 ,7,0,0.,1.2,52.,1.2,8.,1.2,0.,1.2
1981-08-28 15:03:32.330 ,7,0,0.,1.2,42.,1.2,9.,1.2,0.,1.2
1981-08-28 15:03:33.530 ,7,0,0.,1.2,63.,1.2,4.,1.2,0.,1.2
1981-08-28 15:03:34.730 ,7,0,0.,1.2,66.,1.2,4.,1.2,0.,1.2
1981-08-28 15:03:35.930 ,7,0,0.,1.2,54.,1.2,9.,1.2,0.,1.2
1981-08-28 15:03:37.130 ,7,0,0.,1.2,62.,1.2,2.,1.2,0.,1.2
1981-08-28 15:03:38.330 ,7,0,0.,1.2,50.,1.2,1.,1.2,0.,1.2
1981-08-28 15:03:39.530 ,7,0,0.,1.2,62.,1.2,6.,1.2,0.,1.2
1981-08-28 15:03:40.730 ,7,0,0.,1.2,61.,1.2,3.,1.2,0.,1.2
1981-08-28 15:03:41.930 ,7,0,0.,1.2,56.,1.2,6.,1.2,0.,1.2
1981-08-28 15:03:43.130 ,7,0,0.,1.2,74.,1.2,3.,1.2,1.,1.2
1981-08-28 15:03:44.330 ,7,0,0.,1.2,57.,1.2,5.,1.2,0.,1.2
1981-08-28 15:03:45.530 ,7,0,0.,1.2,44.,1.2,4.,1.2,0.,1.2
1981-08-28 15:03:46.730 ,7,0,0.,1.2,59.,1.2,3.,1.2,0.,1.2
1981-08-28 15:03:47.930 ,7,0,0.,1.2,66.,1.2,5.,1.2,0.,1.2
1981-08-28 15:03:49.130 ,7,0,0.,1.2,68.,1.2,4.,1.2,0.,1.2
1981-08-28 15:03:50.330 ,7,0,0.,1.2,66.,1.2,4.,1.2,0.,1.2
1981-08-28 15:03:51.530 ,7,0,0.,1.2,59.,1.2,7.,1.2,0.,1.2
1981-08-28 15:03:52.730 ,7,0,0.,1.2,68.,1.2,4.,1.2,0.,1.2
1981-08-28 15:03:53.930 ,7,0,0.,1.2,61.,1.2,3.,1.2,0.,1.2
1981-08-28 15:03:55.130 ,7,0,0.,1.2,52.,1.2,3.,1.2,0.,1.2
1981-08-28 15:03:56.330 ,7,0,0.,1.2,54.,1.2,10.,1.2,0.,1.2
1981-08-28 15:03:57.530 ,7,0,0.,1.2,51.,1.2,6.,1.2,0.,1.2
1981-08-28 15:03:58.730 ,7,0,0.,1.2,58.,1.2,4.,1.2,0.,1.2
1981-08-28 15:03:59.930 ,7,0,0.,1.2,52.,1.2,8.,1.2,0.,1.2
1981-08-28 15:04:01.130 ,7,0,0.,1.2,66.,1.2,2.,1.2,0.,1.2
1981-08-28 15:04:02.330 ,7,0,0.,1.2,55.,1.2,4.,1.2,0.,1.2
1981-08-28 15:04:03.530 ,7,0,0.,1.2,62.,1.2,2.,1.2,0.,1.2
1981-08-28 15:04:04.730 ,7,0,0.,1.2,64.,1.2,7.,1.2,0.,1.2
1981-08-28 15:04:05.930 ,7,0,0.,1.2,52.,1.2,3.,1.2,0.,1.2
1981-08-28 15:04:07.130 ,7,0,0.,1.2,61.,1.2,6.,1.2,0.,1.2
1981-08-28 15:04:08.330 ,7,0,0.,1.2,51.,1.2,2.,1.2,0.,1.2
1981-08-28 15:04:09.530 ,7,0,0.,1.2,74.,1.2,6.,1.2,0.,1.2
1981-08-28 15:04:10.730 ,7,0,0.,1.2,68.,1.2,4.,1.2,0.,1.2
1981-08-28 15:04:11.930 ,7,0,0.,1.2,74.,1.2,7.,1.2,0.,1.2
1981-08-28 15:04:13.130 ,7,0,0.,1.2,50.,1.2,8.,1.2,0.,1.2
1981-08-28 15:04:14.330 ,7,0,0.,1.2,64.,1.2,3.,1.2,0.,1.2
1981-08-28 15:04:15.530 ,7,0,0.,1.2,56.,1.2,3.,1.2,0.,1.2
1981-08-28 15:04:16.730 ,7,0,0.,1.2,64.,1.2,4.,1.2,0.,1.2
1981-08-28 15:04:17.930 ,7,0,0.,1.2,63.,1.2,4.,1.2,0.,1.2
1981-08-28 15:04:19.130 ,7,0,0.,1.2,68.,1.2,6.,1.2,0.,1.2
1981-08-28 15:04:20.330 ,7,0,0.,1.2,61.,1.2,4.,1.2,0.,1.2
1981-08-28 15:04:21.530 ,7,0,0.,1.2,64.,1.2,4.,1.2,0.,1.2
1981-08-28 15:04:22.730 ,7,0,0.,1.2,56.,1.2,3.,1.2,0.,1.2
1981-08-28 15:04:23.930 ,6,0,0.,1.2,53.,1.2,6.,1.2,0.,1.2
1981-08-28 15:04:25.130 ,6,0,0.,1.2,59.,1.2,5.,1.2,2.,1.2
1981-08-28 15:04:26.330 ,6,0,0.,1.2,62.,1.2,6.,1.2,0.,1.2
1981-08-28 15:04:27.530 ,6,0,0.,1.2,53.,1.2,8.,1.2,0.,1.2
1981-08-28 15:04:28.730 ,6,0,0.,1.2,56.,1.2,2.,1.2,0.,1.2
1981-08-28 15:04:29.930 ,6,0,0.,1.2,456.,1.2,3.,1.2,0.,1.2
1981-08-28 15:04:31.130 ,6,0,0.,1.2,60.,1.2,0.,1.2,0.,1.2
1981-08-28 15:04:32.330 ,6,0,0.,1.2,68.,1.2,0.,1.2,0.,1.2
1981-08-28 15:04:33.530 ,6,0,0.,1.2,57.,1.2,0.,1.2,0.,1.2
1981-08-28 15:04:34.730 ,6,0,0.,1.2,74.,1.2,0.,1.2,0.,1.2
1981-08-28 15:04:35.930 ,6,0,1.,1.2,53.,1.2,0.,1.2,0.,1.2
1981-08-28 15:04:37.130 ,6,0,0.,1.2,74.,1.2,0.,1.2,0.,1.2
1981-08-28 15:04:38.330 ,6,0,0.,1.2,90.,1.2,0.,1.2,0.,1.2
1981-08-28 15:04:39.530 ,6,0,0.,1.2,55.,1.2,0.,1.2,0.,1.2
1981-08-28 15:04:40.730 ,6,0,0.,1.2,66.,1.2,0.,1.2,0.,1.2
1981-08-28 15:04:41.930 ,6,0,0.,1.2,66.,1.2,0.,1.2,0.,1.2
1981-08-28 15:04:43.130 ,6,0,0.,1.2,66.,1.2,0.,1.2,0.,1.2
1981-08-28 15:04:44.330 ,6,0,0.,1.2,74.,1.2,0.,1.2,0.,1.2
1981-08-28 15:04:45.530 ,6,0,0.,1.2,70.,1.2,0.,1.2,0.,1.2
1981-08-28 15:04:46.730 ,6,0,0.,1.2,66.,1.2,0.,1.2,0.,1.2
1981-08-28 15:04:47.930 ,5,0,1.,1.2,58.,1.2,1.,1.2,0.,1.2
1981-08-28 15:04:49.130 ,5,0,0.,1.2,62.,1.2,0.,1.2,0.,1.2
1981-08-28 15:04:50.330 ,5,0,0.,1.2,74.,1.2,0.,1.2,0.,1.2
1981-08-28 15:04:51.530 ,5,0,0.,1.2,70.,1.2,0.,1.2,0.,1.2
1981-08-28 15:04:52.730 ,5,0,0.,1.2,54.,1.2,0.,1.2,0.,1.2
1981-08-28 15:04:53.930 ,5,0,0.,1.2,400.,1.2,0.,1.2,0.,1.2
1981-08-28 15:04:55.130 ,5,0,1.,1.2,58.,1.2,0.,1.2,0.,1.2
1981-08-28 15:04:56.330 ,5,0,1.,1.2,60.,1.2,0.,1.2,0.,1.2
1981-08-28 15:04:57.530 ,5,0,0.,1.2,64.,1.2,0.,1.2,0.,1.2
1981-08-28 15:04:58.730 ,5,0,0.,1.2,61.,1.2,0.,1.2,0.,1.2
1981-08-28 15:04:59.930 ,5,0,0.,1.2,63.,1.2,0.,1.2,0.,1.2
1981-08-28 15:05:01.130 ,5,0,0.,1.2,78.,1.2,0.,1.2,0.,1.2
1981-08-28 15:05:02.330 ,5,0,0.,1.2,53.,1.2,0.,1.2,0.,1.2
1981-08-28 15:05:03.530 ,5,0,0.,1.2,64.,1.2,0.,1.2,0.,1.2
1981-08-28 15:05:04.730 ,5,0,0.,1.2,84.,1.2,0.,1.2,0.,1.2
1981-08-28 15:05:05.930 ,5,0,1.,1.2,59.,1.2,0.,1.2,0.,1.2
1981-08-28 15:05:07.130 ,5,0,0.,1.2,70.,1.2,0.,1.2,0.,1.2
1981-08-28 15:05:08.330 ,5,0,0.,1.2,63.,1.2,0.,1.2,0.,1.2
1981-08-28 15:05:09.530 ,5,0,0.,1.2,74.,1.2,0.,1.2,0.,1.2
1981-08-28 15:05:10.730 ,5,0,0.,1.2,70.,1.2,0.,1.2,0.,1.2
1981-08-28 15:05:11.930 ,4,0,0.,1.2,61.,1.2,0.,1.2,0.,1.2
1981-08-28 15:05:13.130 ,4,0,0.,1.2,57.,1.2,0.,1.2,0.,1.2
1981-08-28 15:05:14.330 ,4,0,0.,1.2,59.,1.2,0.,1.2,0.,1.2
1981-08-28 15:05:15.530 ,4,0,0.,1.2,72.,1.2,0.,1.2,0.,1.2
1981-08-28 15:05:16.730 ,4,0,0.,1.2,63.,1.2,0.,1.2,0.,1.2
1981-08-28 15:05:17.930 ,4,0,0.,1.2,440.,1.2,0.,1.2,0.,1.2
1981-08-28 15:05:19.130 ,4,0,0.,1.2,55.,1.2,0.,1.2,0.,1.2
1981-08-28 15:05:20.330 ,4,0,1.,1.2,60.,1.2,0.,1.2,0.,1.2
1981-08-28 15:05:21.530 ,4,0,0.,1.2,50.,1.2,0.,1.2,0.,1.2
1981-08-28 15:05:22.730 ,4,0,1.,1.2,57.,1.2,0.,1.2,0.,1.2
1981-08-28 15:05:23.930 ,4,0,1.,1.2,63.,1.2,0.,1.2,0.,1.2
1981-08-28 15:05:25.130 ,4,0,0.,1.2,60.,1.2,0.,1.2,0.,1.2
1981-08-28 15:05:26.330 ,4,0,0.,1.2,72.,1.2,0.,1.2,0.,1.2
1981-08-28 15:05:27.530 ,4,0,0.,1.2,59.,1.2,0.,1.2,0.,1.2
1981-08-28 15:05:28.730 ,4,0,0.,1.2,55.,1.2,0.,1.2,0.,1.2
1981-08-28 15:05:29.930 ,4,0,0.,1.2,54.,1.2,0.,1.2,0.,1.2
1981-08-28 15:05:31.130 ,4,0,0.,1.2,48.,1.2,0.,1.2,0.,1.2
1981-08-28 15:05:32.330 ,4,0,0.,1.2,82.,1.2,0.,1.2,1.,1.2
1981-08-28 15:05:33.530 ,4,0,0.,1.2,66.,1.2,0.,1.2,0.,1.2
1981-08-28 15:05:34.730 ,4,0,0.,1.2,61.,1.2,0.,1.2,0.,1.2
1981-08-28 15:05:35.930 ,3,0,1.,1.2,61.,1.2,0.,1.2,0.,1.2
1981-08-28 15:05:37.130 ,3,0,0.,1.2,61.,1.2,0.,1.2,0.,1.2
1981-08-28 15:05:38.330 ,3,0,2.,1.2,54.,1.2,0.,1.2,0.,1.2
1981-08-28 15:05:39.530 ,3,0,0.,1.2,51.,1.2,0.,1.2,0.,1.2
1981-08-28 15:05:40.730 ,3,0,0.,1.2,61.,1.2,0.,1.2,0.,1.2
1981-08-28 15:05:41.930 ,3,0,0.,1.2,456.,1.2,1.,1.2,0.,1.2
1981-08-28 15:05:43.130 ,3,0,1.,1.2,10.,1.2,0.,1.2,1.,1.2
1981-08-28 15:05:44.330 ,3,0,0.,1.2,11.,1.2,0.,1.2,0.,1.2
1981-08-28 15:05:45.530 ,3,0,0.,1.2,6.,1.2,0.,1.2,0.,1.2
1981-08-28 15:05:46.730 ,3,0,1.,1.2,7.,1.2,0.,1.2,0.,1.2
1981-08-28 15:05:47.930 ,3,0,0.,1.2,2.,1.2,0.,1.2,0.,1.2
1981-08-28 15:05:49.130 ,3,0,0.,1.2,13.,1.2,0.,1.2,0.,1.2
1981-08-28 15:05:50.330 ,3,0,0.,1.2,10.,1.2,0.,1.2,0.,1.2
1981-08-28 15:05:51.530 ,3,0,0.,1.2,2.,1.2,0.,1.2,0.,1.2
1981-08-28 15:05:52.730 ,3,0,0.,1.2,6.,1.2,0.,1.2,0.,1.2
1981-08-28 15:05:53.930 ,3,0,0.,1.2,10.,1.2,0.,1.2,0.,1.2
1981-08-28 15:05:55.130 ,3,0,0.,1.2,7.,1.2,0.,1.2,0.,1.2
1981-08-28 15:05:56.330 ,3,0,0.,1.2,5.,1.2,0.,1.2,0.,1.2
1981-08-28 15:05:57.530 ,3,0,0.,1.2,6.,1.2,0.,1.2,0.,1.2
1981-08-28 15:05:58.730 ,3,0,1.,1.2,6.,1.2,0.,1.2,0.,1.2
1981-08-28 15:05:59.930 ,2,0,0.,1.2,11.,1.2,0.,1.2,0.,1.2
1981-08-28 15:06:01.130 ,2,0,0.,1.2,4.,1.2,0.,1.2,0.,1.2
1981-08-28 15:06:02.330 ,2,0,0.,1.2,9.,1.2,0.,1.2,0.,1.2
1981-08-28 15:06:03.530 ,2,0,0.,1.2,9.,1.2,0.,1.2,0.,1.2
1981-08-28 15:06:04.730 ,2,0,0.,1.2,4.,1.2,0.,1.2,0.,1.2
1981-08-28 15:06:05.930 ,2,0,0.,1.2,408.,1.2,0.,1.2,0.,1.2
1981-08-28 15:06:07.130 ,2,0,0.,1.2,59.,1.2,0.,1.2,0.,1.2
1981-08-28 15:06:08.330 ,2,0,0.,1.2,63.,1.2,0.,1.2,0.,1.2
1981-08-28 15:06:09.530 ,2,0,1.,1.2,55.,1.2,0.,1.2,0.,1.2
1981-08-28 15:06:10.730 ,2,0,0.,1.2,74.,1.2,0.,1.2,0.,1.2
1981-08-28 15:06:11.930 ,2,0,0.,1.2,64.,1.2,0.,1.2,0.,1.2
1981-08-28 15:06:13.130 ,2,0,0.,1.2,62.,1.2,0.,1.2,0.,1.2
1981-08-28 15:06:14.330 ,2,0,0.,1.2,64.,1.2,0.,1.2,0.,1.2
1981-08-28 15:06:15.530 ,2,0,0.,1.2,42.,1.2,0.,1.2,0.,1.2
1981-08-28 15:06:16.730 ,2,0,0.,1.2,51.,1.2,0.,1.2,0.,1.2
1981-08-28 15:06:17.930 ,2,0,0.,1.2,63.,1.2,0.,1.2,0.,1.2
1981-08-28 15:06:19.130 ,2,0,0.,1.2,47.,1.2,0.,1.2,0.,1.2
1981-08-28 15:06:20.330 ,2,0,0.,1.2,54.,1.2,0.,1.2,0.,1.2
1981-08-28 15:06:21.530 ,2,0,0.,1.2,60.,1.2,0.,1.2,0.,1.2
1981-08-28 15:06:22.730 ,2,0,0.,1.2,50.,1.2,0.,1.2,0.,1.2
1981-08-28 15:06:23.930 ,1,0,0.,1.2,63.,1.2,0.,1.2,0.,1.2
1981-08-28 15:06:25.130 ,1,0,1.,1.2,54.,1.2,0.,1.2,0.,1.2
1981-08-28 15:06:26.330 ,1,0,0.,1.2,50.,1.2,0.,1.2,0.,1.2
1981-08-28 15:06:27.530 ,1,0,0.,1.2,62.,1.2,0.,1.2,0.,1.2
1981-08-28 15:06:28.730 ,1,0,0.,1.2,51.,1.2,0.,1.2,1.,1.2
1981-08-28 15:06:29.930 ,1,0,0.,1.2,392.,1.2,0.,1.2,0.,1.2
1981-08-28 15:06:31.130 ,1,0,1.,1.2,40.,1.2,0.,1.2,0.,1.2
1981-08-28 15:06:32.330 ,1,0,0.,1.2,49.,1.2,0.,1.2,0.,1.2
1981-08-28 15:06:33.530 ,1,0,0.,1.2,47.,1.2,0.,1.2,0.,1.2
1981-08-28 15:06:34.730 ,1,0,0.,1.2,62.,1.2,0.,1.2,0.,1.2
1981-08-28 15:06:35.930 ,1,0,0.,1.2,63.,1.2,0.,1.2,0.,1.2
1981-08-28 15:06:37.130 ,1,0,0.,1.2,39.,1.2,0.,1.2,0.,1.2
1981-08-28 15:06:38.330 ,1,0,0.,1.2,68.,1.2,0.,1.2,0.,1.2
1981-08-28 15:06:39.530 ,1,0,0.,1.2,50.,1.2,0.,1.2,0.,1.2
1981-08-28 15:06:40.730 ,1,0,0.,1.2,51.,1.2,0.,1.2,0.,1.2
1981-08-28 15:06:41.930 ,1,0,0.,1.2,51.,1.2,0.,1.2,0.,1.2
1981-08-28 15:06:43.130 ,1,0,0.,1.2,47.,1.2,0.,1.2,0.,1.2
1981-08-28 15:06:44.330 ,1,0,0.,1.2,60.,1.2,0.,1.2,0.,1.2
1981-08-28 15:06:45.530 ,1,0,0.,1.2,56.,1.2,0.,1.2,0.,1.2
1981-08-28 15:06:46.730 ,1,0,0.,1.2,53.,1.2,0.,1.2,0.,1.2
1981-08-28 15:06:47.930 ,0,0,1.,1.2,52.,1.2,0.,1.2,0.,1.2
1981-08-28 15:06:49.130 ,0,0,0.,1.2,55.,1.2,0.,1.2,0.,1.2
1981-08-28 15:06:50.330 ,0,0,0.,1.2,46.,1.2,0.,1.2,0.,1.2
1981-08-28 15:06:51.530 ,0,0,0.,1.2,50.,1.2,0.,1.2,0.,1.2
1981-08-28 15:06:52.730 ,0,0,0.,1.2,53.,1.2,0.,1.2,0.,1.2
1981-08-28 15:06:53.930 ,0,0,1.,1.2,504.,1.2,0.,1.2,0.,1.2
1981-08-28 15:06:55.130 ,0,0,0.,1.2,52.,1.2,0.,1.2,0.,1.2
1981-08-28 15:06:56.330 ,0,0,1.,1.2,47.,1.2,0.,1.2,0.,1.2
1981-08-28 15:06:57.530 ,0,0,2.,1.2,50.,1.2,0.,1.2,0.,1.2
1981-08-28 15:06:58.730 ,0,0,0.,1.2,36.,1.2,0.,1.2,0.,1.2
1981-08-28 15:06:59.930 ,0,0,1.,1.2,48.,1.2,0.,1.2,0.,1.2
1981-08-28 15:07:01.130 ,0,0,1.,1.2,46.,1.2,0.,1.2,0.,1.2
1981-08-28 15:07:02.330 ,0,0,0.,1.2,57.,1.2,0.,1.2,0.,1.2
1981-08-28 15:07:03.530 ,0,0,0.,1.2,56.,1.2,0.,1.2,0.,1.2
1981-08-28 15:07:04.730 ,0,0,1.,1.2,42.,1.2,0.,1.2,0.,1.2
1981-08-28 15:07:05.930 ,0,0,1.,1.2,43.,1.2,0.,1.2,0.,1.2
1981-08-28 15:07:07.130 ,0,0,0.,1.2,49.,1.2,0.,1.2,0.,1.2
1981-08-28 15:07:08.330 ,0,0,0.,1.2,60.,1.2,0.,1.2,0.,1.2
1981-08-28 15:07:09.530 ,0,0,1.,1.2,47.,1.2,0.,1.2,0.,1.2
1981-08-28 15:07:10.730 ,0,0,0.,1.2,59.,1.2,0.,1.2,0.,1.2
1981-08-28 15:07:11.930 ,0,0,0.,1.2,47.,1.2,0.,1.2,0.,1.2
1981-08-28 15:07:13.130 ,0,0,0.,1.2,47.,1.2,0.,1.2,0.,1.2
1981-08-28 15:07:14.330 ,0,0,1.,1.2,48.,1.2,0.,1.2,0.,1.2
1981-08-28 15:07:15.530 ,0,0,0.,1.2,45.,1.2,0.,1.2,0.,1.2
1981-08-28 15:07:16.730 ,0,0,0.,1.2,44.,1.2,0.,1.2,0.,1.2
1981-08-28 15:07:17.930 ,0,0,0.,1.2,63.,1.2,0.,1.2,0.,1.2
1981-08-28 15:07:19.130 ,0,0,1.,1.2,64.,1.2,0.,1.2,0.,1.2
1981-08-28 15:07:20.330 ,0,0,0.,1.2,59.,1.2,0.,1.2,0.,1.2
1981-08-28 15:07:21.530 ,0,0,0.,1.2,47.,1.2,0.,1.2,0.,1.2
1981-08-28 15:07:22.730 ,0,0,0.,1.2,40.,1.2,0.,1.2,0.,1.2
1981-08-28 15:07:23.930 ,0,0,0.,1.2,49.,1.2,0.,1.2,0.,1.2
1981-08-28 15:07:25.130 ,0,0,0.,1.2,52.,1.2,0.,1.2,0.,1.2
1981-08-28 15:07:26.330 ,0,0,0.,1.2,54.,1.2,0.,1.2,0.,1.2
1981-08-28 15:07:27.530 ,0,0,1.,1.2,49.,1.2,0.,1.2,0.,1.2
1981-08-28 15:07:28.730 ,0,0,2.,1.2,51.,1.2,0.,1.2,0.,1.2
1981-08-28 15:07:29.930 ,0,0,0.,1.2,54.,1.2,0.,1.2,0.,1.2
1981-08-28 15:07:31.130 ,0,0,0.,1.2,56.,1.2,0.,1.2,0.,1.2
1981-08-28 15:07:32.330 ,0,0,0.,1.2,41.,1.2,0.,1.2,0.,1.2
1981-08-28 15:07:33.530 ,0,0,1.,1.2,57.,1.2,0.,1.2,0.,1.2
1981-08-28 15:07:34.730 ,0,0,0.,1.2,49.,1.2,0.,1.2,0.,1.2
1981-08-28 15:07:35.930 ,1,0,0.,1.2,46.,1.2,0.,1.2,0.,1.2
1981-08-28 15:07:37.130 ,1,0,0.,1.2,50.,1.2,0.,1.2,0.,1.2
1981-08-28 15:07:38.330 ,1,0,0.,1.2,52.,1.2,0.,1.2,0.,1.2
1981-08-28 15:07:39.530 ,1,0,0.,1.2,70.,1.2,0.,1.2,0.,1.2
1981-08-28 15:07:40.730 ,1,0,0.,1.2,36.,1.2,0.,1.2,0.,1.2
1981-08-28 15:07:41.930 ,1,0,0.,1.2,424.,1.2,0.,1.2,0.,1.2
1981-08-28 15:07:43.130 ,1,0,1.,1.2,42.,1.2,0.,1.2,0.,1.2
1981-08-28 15:07:44.330 ,1,0,0.,1.2,52.,1.2,0.,1.2,0.,1.2
1981-08-28 15:07:45.530 ,1,0,0.,1.2,49.,1.2,0.,1.2,0.,1.2
1981-08-28 15:07:46.730 ,1,0,1.,1.2,47.,1.2,0.,1.2,0.,1.2
1981-08-28 15:07:47.930 ,1,0,0.,1.2,44.,1.2,0.,1.2,0.,1.2
1981-08-28 15:07:49.130 ,1,0,0.,1.2,42.,1.2,0.,1.2,0.,1.2
1981-08-28 15:07:50.330 ,1,0,0.,1.2,45.,1.2,0.,1.2,0.,1.2
1981-08-28 15:07:51.530 ,1,0,0.,1.2,53.,1.2,0.,1.2,0.,1.2
1981-08-28 15:07:52.730 ,1,0,1.,1.2,41.,1.2,0.,1.2,0.,1.2
1981-08-28 15:07:53.930 ,1,0,1.,1.2,52.,1.2,0.,1.2,0.,1.2
1981-08-28 15:07:55.130 ,1,0,0.,1.2,39.,1.2,0.,1.2,0.,1.2
1981-08-28 15:07:56.330 ,1,0,0.,1.2,59.,1.2,0.,1.2,0.,1.2
1981-08-28 15:07:57.530 ,1,0,0.,1.2,46.,1.2,0.,1.2,1.,1.2
1981-08-28 15:07:58.730 ,1,0,0.,1.2,59.,1.2,0.,1.2,0.,1.2
1981-08-28 15:07:59.930 ,2,0,0.,1.2,58.,1.2,0.,1.2,0.,1.2
1981-08-28 15:08:01.130 ,2,0,0.,1.2,63.,1.2,0.,1.2,0.,1.2
1981-08-28 15:08:02.330 ,2,0,0.,1.2,52.,1.2,0.,1.2,0.,1.2
1981-08-28 15:08:03.530 ,2,0,1.,1.2,55.,1.2,0.,1.2,0.,1.2
1981-08-28 15:08:04.730 ,2,0,0.,1.2,56.,1.2,0.,1.2,0.,1.2
1981-08-28 15:08:05.930 ,2,0,1.,1.2,320.,1.2,0.,1.2,0.,1.2
1981-08-28 15:08:07.130 ,2,0,0.,1.2,49.,1.2,0.,1.2,0.,1.2
1981-08-28 15:08:08.330 ,2,0,1.,1.2,38.,1.2,0.,1.2,0.,1.2
1981-08-28 15:08:09.530 ,2,0,0.,1.2,44.,1.2,0.,1.2,0.,1.2
1981-08-28 15:08:10.730 ,2,0,1.,1.2,39.,1.2,0.,1.2,0.,1.2
1981-08-28 15:08:11.930 ,2,0,0.,1.2,36.,1.2,0.,1.2,0.,1.2
1981-08-28 15:08:13.130 ,2,0,1.,1.2,61.,1.2,0.,1.2,0.,1.2
1981-08-28 15:08:14.330 ,2,0,0.,1.2,41.,1.2,0.,1.2,0.,1.2
1981-08-28 15:08:15.530 ,2,0,0.,1.2,53.,1.2,0.,1.2,0.,1.2
1981-08-28 15:08:16.730 ,2,0,1.,1.2,44.,1.2,0.,1.2,0.,1.2
1981-08-28 15:08:17.930 ,2,0,0.,1.2,45.,1.2,0.,1.2,0.,1.2
1981-08-28 15:08:19.130 ,2,0,0.,1.2,49.,1.2,0.,1.2,0.,1.2
1981-08-28 15:08:20.330 ,2,0,0.,1.2,41.,1.2,0.,1.2,0.,1.2
1981-08-28 15:08:21.530 ,2,0,0.,1.2,47.,1.2,0.,1.2,0.,1.2
1981-08-28 15:08:22.730 ,2,0,0.,1.2,52.,1.2,0.,1.2,0.,1.2
1981-08-28 15:08:23.930 ,3,0,0.,1.2,42.,1.2,0.,1.2,0.,1.2
1981-08-28 15:08:25.130 ,3,0,0.,1.2,64.,1.2,0.,1.2,0.,1.2
1981-08-28 15:08:26.330 ,3,0,0.,1.2,60.,1.2,0.,1.2,0.,1.2
1981-08-28 15:08:27.530 ,3,0,0.,1.2,64.,1.2,0.,1.2,0.,1.2
1981-08-28 15:08:28.730 ,3,0,1.,1.2,37.,1.2,0.,1.2,0.,1.2